CW4489 Marathon FL US current weather conditions

sailwx.info

Wind from 339

Air temperature 21.1° C
Dewpoint 16.7° C

Last reported at 2014-Dec-17 22:50 UTC.
Time now 2014-Dec-17 23:14 UTC

Location: N 24°44' W 081°02'.
View on Google Maps.

See reports from other nearby stations

  
Tides and Currents Weather Stations Pressure Air Temp Water Temp Dewpoint Dewpoint Depression Visibility Wind Speed Wind Dir Waves Ship Positions
date/time (UTC)wind fromknots sea level pressurealtimeterstation pressurevisibilityair tempwater tempwave heightnotes
2014-Dec-17 22:50 339 21.1
2014-Dec-17 22:20 338 21.7
2014-Dec-17 22:00 355 0 gusting 2 22.2
2014-Dec-17 21:50 351 0 gusting 2 22.8
2014-Dec-17 21:40 019 22.8
2014-Dec-17 21:30 344 2 gusting 2 23.3
2014-Dec-17 21:00 329 2 gusting 2 25.0
2014-Dec-17 20:50 036 0 gusting 2 25.6
2014-Dec-17 20:40 056 25.6
2014-Dec-17 20:30 084 25.6
2014-Dec-17 20:10 040 24.4
2014-Dec-17 20:00 022 1 gusting 2 24.4
2014-Dec-17 19:50 034 1 gusting 3 24.4
2014-Dec-17 19:30 010 1 gusting 3 25.6
2014-Dec-17 19:10 047 24.4
2014-Dec-17 19:00 036 2 gusting 3 24.4
2014-Dec-17 18:50 024 2 gusting 5 24.4
2014-Dec-17 18:40 030 24.4
2014-Dec-17 18:20 030 2 gusting 4 24.4
2014-Dec-17 18:00 051 0 gusting 4 24.4
2014-Dec-17 17:50 024 2 gusting 3 24.4
2014-Dec-17 17:40 045 0 gusting 3 24.4
2014-Dec-17 17:30 038 0 gusting 4 23.9
2014-Dec-17 17:10 026 2 gusting 5 23.3
2014-Dec-17 17:00 045 2 gusting 4 22.8
2014-Dec-17 16:50 039 1 gusting 5 22.2
2014-Dec-17 16:40 005 4 gusting 6 21.7
2014-Dec-17 15:50 013 4 gusting 6 21.1
2014-Dec-17 15:40 011 2 gusting 5 21.1
2014-Dec-17 15:30 046 3 gusting 6 21.1
2014-Dec-17 15:20 033 2 gusting 6 21.1
2014-Dec-17 14:50 015 1 gusting 4 21.1
2014-Dec-17 14:30 022 2 gusting 5 21.1
2014-Dec-17 14:20 055 1 gusting 4 21.1
2014-Dec-17 14:10 031 2 gusting 3 20.6
2014-Dec-17 13:40 009 3 gusting 5 19.4
2014-Dec-17 13:10 355 2 gusting 4 18.9
2014-Dec-17 13:00 030 2 gusting 3 18.3
2014-Dec-17 12:50 009 0 gusting 4 18.3
2014-Dec-17 12:40 029 2 gusting 4 17.8
2014-Dec-17 12:20 021 2 gusting 5 17.8
2014-Dec-17 12:00 031 2 gusting 4 17.8
2014-Dec-17 11:30 036 2 gusting 4 17.8
2014-Dec-17 11:10 032 17.8
2014-Dec-17 10:40 019 1 gusting 2 17.8
2014-Dec-17 10:30 029 2 gusting 2 17.8
2014-Dec-17 10:00 026 0 gusting 3 17.8
2014-Dec-17 09:50 031 1 gusting 3 17.8
2014-Dec-17 09:40 026 17.8
2014-Dec-17 09:20 029 1 gusting 4 17.8
2014-Dec-17 09:00 027 3 gusting 4 18.3
2014-Dec-17 08:50 028 2 gusting 3 18.3
2014-Dec-17 08:30 019 2 gusting 6 18.3
2014-Dec-17 08:20 009 2 gusting 5 18.3
2014-Dec-17 08:10 016 2 gusting 3 18.3
2014-Dec-17 08:00 015 2 gusting 5 18.3
2014-Dec-17 07:50 032 1 gusting 5 18.3
2014-Dec-17 07:40 005 5 gusting 5 18.3
2014-Dec-17 07:30 005 2 gusting 3 18.9
2014-Dec-17 07:20 041 0 gusting 4 18.9
2014-Dec-17 07:10 018 0 gusting 3 18.9
2014-Dec-17 07:00 041 2 gusting 4 18.9
2014-Dec-17 06:40 355 2 gusting 3 18.9
2014-Dec-17 06:30 015 2 gusting 4 18.9
2014-Dec-17 06:20 005 2 gusting 4 18.9
2014-Dec-17 06:10 347 4 gusting 4 18.9
2014-Dec-17 06:00 355 2 gusting 5 18.9
2014-Dec-17 05:50 005 2 gusting 3 18.9
2014-Dec-17 05:30 033 2 gusting 5 18.9
2014-Dec-17 05:20 013 2 gusting 4 18.9
2014-Dec-17 05:10 028 2 gusting 5 18.9
2014-Dec-17 04:50 005 5 gusting 6 18.9
2014-Dec-17 04:30 351 2 gusting 7 18.9
2014-Dec-17 04:20 350 4 gusting 6 18.9
2014-Dec-17 04:10 349 2 gusting 4 18.9
2014-Dec-17 04:00 015 2 gusting 4 18.9
2014-Dec-17 03:50 026 4 gusting 4 18.9
2014-Dec-17 03:40 009 2 gusting 3 18.9
2014-Dec-17 03:10 013 18.9
2014-Dec-17 03:00 010 0 gusting 2 18.9
2014-Dec-17 02:40 011 0 gusting 2 18.9
2014-Dec-17 02:30 023 18.9
2014-Dec-17 02:20 346 18.9
2014-Dec-17 02:10 346 0 gusting 1 18.9
2014-Dec-17 01:50 346 18.9
2014-Dec-17 01:30 360 19.4
2014-Dec-17 01:20 360 0 gusting 1 19.4
2014-Dec-17 00:10 360 1 gusting 3 20.0
2014-Dec-16 23:50 005 2 gusting 2 20.0
2014-Dec-16 23:40 355 0 gusting 2 20.0
2014-Dec-16 23:20 347 2 gusting 3 20.0
2014-Dec-16 23:00 348 20.6
2014-Dec-16 22:50 340 2 gusting 3 21.1
2014-Dec-16 22:40 340 2 gusting 2 21.1
2014-Dec-16 22:20 336 21.7
2014-Dec-16 22:10 360 2 gusting 2 21.7
2014-Dec-16 22:00 360 1 gusting 3 21.7
2014-Dec-16 21:50 348 2 gusting 3 22.2
2014-Dec-16 21:40 335 1 gusting 2 22.8
2014-Dec-16 21:30 011 2 gusting 3 22.8
2014-Dec-16 21:20 351 2 gusting 3 23.3
2014-Dec-16 21:10 355 1 gusting 3 23.3
2014-Dec-16 21:00 345 2 gusting 3 23.9
2014-Dec-16 20:50 355 1 gusting 3 24.4
2014-Dec-16 20:40 015 3 gusting 3 24.4
2014-Dec-16 20:30 005 1 gusting 2 24.4
2014-Dec-16 20:20 346 2 gusting 4 24.4
2014-Dec-16 20:00 029 2 gusting 5 24.4
2014-Dec-16 19:50 350 4 gusting 5 23.9
2014-Dec-16 19:30 015 1 gusting 6 23.3
2014-Dec-16 19:20 032 2 gusting 6 23.3
2014-Dec-16 19:10 355 5 gusting 6 22.8
2014-Dec-16 19:00 028 5 gusting 6 22.8
2014-Dec-16 18:50 360 4 gusting 6 22.8
2014-Dec-16 00:10 076 0 gusting 3 20.6
2014-Dec-16 00:00 071 0 gusting 2 20.6
2014-Dec-15 23:30 023 21.1